Simultaneous Nadir Overpasses (SNOs) Predictions

Prediction of SNOs between NOAA-20 and METOP-B Satellite Orbit:

Table of predicted SNOs for the next 14.0 days since TLE Epoch: 7/17/2020
Index Date (NOAA-20) Time (NOAA-20) Lat,Lon (NOAA-20) SZA (NOAA-20 ) Date (METOP-B) Time (METOP-B) Lat,Lon (METOP-B) SZA (METOP-B ) Distance(km) Time Diff (sec)
1 07/28/2020 00:06:29 -73.57, -11.57 125.06 07/28/2020 00:07:34 -73.51, -8.43 125.31 99.24 65
2 07/28/2020 00:57:10 73.33, 156.28 54.69 07/28/2020 00:58:18 73.30, 158.42 54.51 68.44 68
3 07/28/2020 01:47:52 -73.23, -36.18 125.42 07/28/2020 01:49:02 -73.19, -34.49 125.58 54.28 70
4 07/28/2020 02:38:34 73.03, 131.55 54.37 07/28/2020 02:39:46 72.97, 132.38 54.25 27.60 72
5 07/28/2020 03:29:16 -72.93, -60.91 125.73 07/28/2020 03:30:29 -72.91, -60.42 125.80 16.22 73
6 07/28/2020 04:19:59 72.79, 106.70 54.12 07/28/2020 04:21:11 72.80, 106.67 54.11 1.39 72
7 07/28/2020 05:10:43 -72.79, -85.98 125.88 07/28/2020 05:11:53 -72.79, -86.02 125.89 1.20 70
8 07/28/2020 06:01:29 72.79, 81.31 54.14 07/28/2020 06:02:33 72.77, 81.28 54.11 2.64 64
9 07/28/2020 06:52:13 -72.80,-111.37 125.85 07/28/2020 06:53:14 -72.82,-111.30 125.85 3.30 61
10 07/28/2020 07:42:59 72.80, 55.92 54.17 07/28/2020 07:43:54 72.80, 56.00 54.15 2.51 55
11 07/28/2020 08:33:43 -72.80,-136.76 125.83 07/28/2020 08:34:36 -72.79,-136.69 125.86 2.55 53
12 07/28/2020 09:24:28 72.76, 30.64 54.13 07/28/2020 09:25:16 72.78, 30.61 54.14 2.40 48
13 07/28/2020 10:15:12 -72.76,-162.05 125.86 07/28/2020 10:15:58 -72.77,-162.08 125.86 1.71 46
14 07/28/2020 11:05:58 72.77, 5.25 54.16 07/28/2020 11:06:38 72.76, 5.22 54.14 1.40 40
15 07/28/2020 11:56:42 -72.77, 172.57 125.84 07/28/2020 11:57:20 -72.75, 172.54 125.86 2.18 38
16 07/28/2020 12:47:28 72.77, -20.14 54.18 07/28/2020 12:47:59 72.78, -20.06 54.18 2.94 31
17 07/28/2020 13:38:12 -72.77, 147.18 125.81 07/28/2020 13:38:41 -72.78, 147.25 125.82 2.56 29
18 07/28/2020 14:28:58 72.78, -45.53 54.21 07/28/2020 14:29:21 72.76, -45.44 54.18 3.44 23
19 07/28/2020 15:19:40 -72.73, 121.89 125.84 07/28/2020 15:20:02 -72.75, 121.87 125.82 2.84 22
20 07/28/2020 16:10:26 72.74, -70.81 54.17 07/28/2020 16:10:42 72.74, -70.83 54.17 0.72 16
21 07/28/2020 17:01:10 -72.74, 96.50 125.82 07/28/2020 17:01:24 -72.73, 96.48 125.83 1.01 14
22 07/28/2020 17:51:56 72.74, -96.20 54.20 07/28/2020 17:52:04 72.71, -96.22 54.17 3.17 8
23 07/28/2020 18:42:40 -72.74, 71.12 125.80 07/28/2020 18:42:45 -72.76, 71.20 125.79 3.21 5
24 07/28/2020 19:33:26 72.75,-121.59 54.22 07/28/2020 19:33:25 72.74,-121.50 54.21 2.99 1
25 07/28/2020 20:24:10 -72.75, 45.73 125.77 07/28/2020 20:24:07 -72.74, 45.81 125.79 3.18 3
26 07/28/2020 21:14:55 72.71,-146.87 54.19 07/28/2020 21:14:47 72.72,-146.89 54.21 1.63 8
27 07/28/2020 22:05:39 -72.71, 20.44 125.80 07/28/2020 22:05:29 -72.71, 20.42 125.79 0.96 10
28 07/28/2020 22:56:25 72.71,-172.26 54.22 07/28/2020 22:56:09 72.70,-172.27 54.21 1.84 16
29 07/28/2020 23:47:09 -72.71, -4.95 125.78 07/28/2020 23:46:51 -72.69, -4.96 125.80 2.63 18
30 07/29/2020 00:37:55 72.72, 162.35 54.24 07/29/2020 00:37:30 72.72, 162.44 54.25 3.12 25
31 07/29/2020 01:28:39 -72.72, -30.33 125.75 07/29/2020 01:28:12 -72.72, -30.24 125.76 2.96 27
32 07/29/2020 02:19:24 72.68, 137.07 54.21 07/29/2020 02:18:52 72.70, 137.06 54.24 2.89 32
33 07/29/2020 03:10:08 -72.68, -55.62 125.79 07/29/2020 03:09:34 -72.69, -55.63 125.76 2.12 34
34 07/29/2020 04:00:54 72.68, 111.68 54.23 07/29/2020 04:00:14 72.68, 111.67 54.24 0.53 40
35 07/29/2020 04:51:38 -72.68, -81.01 125.76 07/29/2020 04:50:56 -72.67, -81.02 125.76 1.29 42
36 07/29/2020 05:42:24 72.69, 86.29 54.26 07/29/2020 05:41:35 72.71, 86.39 54.28 3.76 49
37 07/29/2020 06:33:08 -72.69,-106.40 125.74 07/29/2020 06:32:17 -72.70,-106.30 125.72 3.32 51
38 07/29/2020 07:23:54 72.70, 60.90 54.28 07/29/2020 07:22:57 72.68, 61.00 54.28 3.63 57
39 07/29/2020 08:14:37 -72.65,-131.68 125.77 07/29/2020 08:13:39 -72.68,-131.69 125.72 3.42 58
40 07/29/2020 09:05:23 72.65, 35.62 54.25 07/29/2020 09:04:19 72.66, 35.61 54.27 0.87 64
41 07/29/2020 09:56:07 -72.65,-157.07 125.74 07/29/2020 09:55:01 -72.65,-157.07 125.73 0.19 66
42 07/29/2020 10:46:53 72.66, 10.23 54.28 07/29/2020 10:45:41 72.64, 10.23 54.27 2.47 72
43 07/29/2020 11:37:37 -72.66, 177.54 125.72 07/29/2020 11:36:23 -72.63, 177.54 125.73 3.22 74
44 07/29/2020 12:28:19 72.46, -14.75 54.08 07/29/2020 12:27:06 72.46, -15.47 54.14 24.07 73
45 07/29/2020 13:19:01 -72.36, 152.77 126.03 07/29/2020 13:17:49 -72.40, 151.75 125.91 34.70 72
46 07/29/2020 14:09:43 72.16, -39.53 53.77 07/29/2020 14:08:34 72.13, -41.45 53.87 65.50 69
47 07/29/2020 15:00:25 -72.06, 127.97 126.34 07/29/2020 14:59:17 -72.07, 125.77 126.17 75.57 68
